• In Belgien
  • Länderverzeichnis
  • Für 7 Tage
  • Wassertemperatur
  • Satellitenkarten
  • Wetterkarte
  • Widgets
  • user-avatar
    Anmelden

    Stündliche Wetter Kalgoorlie

    Heute, 13 Dezember, Mittwoch

    Zeit Temperatur Niederschläge Wind Luftdruck Luftfeuchtigkeit
    00:00 +23°C° 0 mm 7 m/S 726 mmHg 60%
    01:00 +22°C° 0 mm 7 m/S 726 mmHg 61%
    02:00 +20°C° 0 mm 6 m/S 726 mmHg 62%
    03:00 +20°C° 0 mm 6 m/S 726 mmHg 64%
    04:00 +19°C° 0 mm 6 m/S 727 mmHg 66%
    05:00 +19°C° 0 mm 5 m/S 727 mmHg 68%
    06:00 +20°C° 0 mm 5 m/S 727 mmHg 62%
    07:00 +21°C° 0 mm 5 m/S 728 mmHg 57%
    08:00 +22°C° 0 mm 4 m/S 728 mmHg 52%
    09:00 +25°C° 0 mm 4 m/S 728 mmHg 47%
    10:00 +27°C° 0 mm 4 m/S 728 mmHg 41%
    11:00 +28°C° 0 mm 4 m/S 728 mmHg 36%
    12:00 +29°C° 0 mm 4 m/S 728 mmHg 35%
    13:00 +30°C° 0 mm 4 m/S 728 mmHg 34%
    14:00 +30°C° 0 mm 5 m/S 727 mmHg 33%
    15:00 +30°C° 0 mm 5 m/S 727 mmHg 33%
    16:00 +30°C° 0 mm 5 m/S 727 mmHg 32%
    17:00 +30°C° 0 mm 5 m/S 727 mmHg 32%
    18:00 +29°C° 0 mm 5 m/S 728 mmHg 32%
    19:00 +28°C° 0 mm 5 m/S 728 mmHg 33%
    20:00 +27°C° 0 mm 5 m/S 728 mmHg 33%
    21:00 +26°C° 0 mm 6 m/S 729 mmHg 36%
    22:00 +24°C° 0 mm 7 m/S 729 mmHg 40%
    23:00 +23°C° 0 mm 8 m/S 730 mmHg 43%

    Morgen, 14 Dezember, Donnerstag

    Zeit Temperatur Niederschläge Wind Luftdruck Luftfeuchtigkeit
    00:00 +22°C° 0 mm 8 m/S 730 mmHg 47%
    01:00 +20°C° 0 mm 7 m/S 729 mmHg 52%
    02:00 +18°C° 0 mm 7 m/S 729 mmHg 56%
    03:00 +19°C° 0 mm 6 m/S 730 mmHg 59%
    04:00 +17°C° 0 mm 6 m/S 730 mmHg 61%
    05:00 +17°C° 0 mm 6 m/S 730 mmHg 64%
    06:00 +19°C° 0 mm 5 m/S 730 mmHg 60%
    07:00 +20°C° 0 mm 5 m/S 731 mmHg 56%
    08:00 +21°C° 0 mm 4 m/S 731 mmHg 52%
    09:00 +23°C° 0 mm 4 m/S 730 mmHg 47%
    10:00 +26°C° 0 mm 3 m/S 730 mmHg 41%
    11:00 +27°C° 0 mm 2 m/S 730 mmHg 36%
    12:00 +29°C° 0 mm 2 m/S 729 mmHg 32%
    13:00 +30°C° 0 mm 1 m/S 729 mmHg 29%
    14:00 +29°C° 0 mm 0 m/S 728 mmHg 25%
    15:00 +30°C° 0 mm 0 m/S 728 mmHg 24%
    16:00 +32°C° 0 mm 1 m/S 727 mmHg 23%
    17:00 +33°C° 0 mm 1 m/S 727 mmHg 21%
    18:00 +32°C° 0 mm 2 m/S 727 mmHg 22%
    19:00 +32°C° 0 mm 2 m/S 727 mmHg 22%
    20:00 +31°C° 0 mm 3 m/S 727 mmHg 23%
    21:00 +30°C° 0 mm 4 m/S 727 mmHg 24%
    22:00 +30°C° 0 mm 4 m/S 727 mmHg 25%
    23:00 +29°C° 0 mm 5 m/S 727 mmHg 26%

    übermorgen, 15 Dezember, Freitag

    Zeit Temperatur Niederschläge Wind Luftdruck Luftfeuchtigkeit
    00:00 +28°C° 0 mm 5 m/S 727 mmHg 27%
    01:00 +27°C° 0 mm 6 m/S 727 mmHg 28%
    02:00 +26°C° 0 mm 6 m/S 726 mmHg 30%
    03:00 +26°C° 0 mm 6 m/S 726 mmHg 31%
    04:00 +25°C° 0 mm 5 m/S 727 mmHg 33%
    05:00 +25°C° 0 mm 5 m/S 727 mmHg 35%
    06:00 +26°C° 0 mm 6 m/S 727 mmHg 32%
    07:00 +28°C° 0 mm 6 m/S 727 mmHg 29%
    08:00 +30°C° 0 mm 6 m/S 727 mmHg 27%
    09:00 +33°C° 0 mm 6 m/S 727 mmHg 25%
    10:00 +34°C° 0 mm 6 m/S 727 mmHg 23%
    11:00 +36°C° 0 mm 6 m/S 726 mmHg 20%
    12:00 +37°C° 0 mm 5 m/S 725 mmHg 20%
    13:00 +38°C° 0 mm 4 m/S 725 mmHg 19%
    14:00 +38°C° 0 mm 4 m/S 724 mmHg 19%
    15:00 +38°C° 0 mm 3 m/S 723 mmHg 19%
    16:00 +38°C° 0 mm 2 m/S 723 mmHg 19%
    17:00 +37°C° 0 mm 1 m/S 723 mmHg 20%
    18:00 +36°C° 0,3 mm 2 m/S 723 mmHg 23%
    19:00 +35°C° 0,3 mm 2 m/S 723 mmHg 27%
    20:00 +34°C° 0,3 mm 3 m/S 723 mmHg 30%
    21:00 +33°C° 0,2 mm 4 m/S 723 mmHg 33%
    22:00 +32°C° 0,2 mm 5 m/S 723 mmHg 36%
    23:00 +30°C° 0,2 mm 6 m/S 724 mmHg 39%

    16 Dezember, Samstag

    Zeit Temperatur Niederschläge Wind Luftdruck Luftfeuchtigkeit
    00:00 +28°C° 0 mm 6 m/S 723 mmHg 42%
    01:00 +27°C° 0 mm 7 m/S 723 mmHg 45%
    02:00 +26°C° 0 mm 8 m/S 722 mmHg 48%
    03:00 +24°C° 0 mm 7 m/S 722 mmHg 49%
    04:00 +24°C° 0 mm 7 m/S 722 mmHg 50%
    05:00 +23°C° 0 mm 7 m/S 722 mmHg 50%
    06:00 +27°C° 0 mm 6 m/S 722 mmHg 42%
    07:00 +30°C° 0 mm 6 m/S 722 mmHg 34%
    08:00 +34°C° 0 mm 5 m/S 723 mmHg 27%
    09:00 +36°C° 0 mm 6 m/S 722 mmHg 23%
    10:00 +39°C° 0 mm 8 m/S 722 mmHg 19%
    11:00 +42°C° 0 mm 9 m/S 722 mmHg 15%
    12:00 +43°C° 0 mm 9 m/S 721 mmHg 13%
    13:00 +43°C° 0 mm 10 m/S 721 mmHg 12%
    14:00 +44°C° 0 mm 10 m/S 721 mmHg 11%
    15:00 +44°C° 0 mm 10 m/S 720 mmHg 11%
    16:00 +43°C° 0 mm 10 m/S 720 mmHg 11%
    17:00 +43°C° 0 mm 9 m/S 720 mmHg 11%
    18:00 +41°C° 0 mm 8 m/S 720 mmHg 12%
    19:00 +39°C° 0 mm 7 m/S 720 mmHg 14%
    20:00 +36°C° 0 mm 5 m/S 721 mmHg 15%
    21:00 +35°C° 0 mm 5 m/S 721 mmHg 19%
    22:00 +33°C° 0 mm 5 m/S 721 mmHg 22%
    23:00 +32°C° 0 mm 4 m/S 721 mmHg 25%

    17 Dezember, Sonntag

    Zeit Temperatur Niederschläge Wind Luftdruck Luftfeuchtigkeit
    00:00 +30°C° 0 mm 5 m/S 721 mmHg 27%
    01:00 +28°C° 0 mm 6 m/S 720 mmHg 29%
    02:00 +27°C° 0 mm 7 m/S 720 mmHg 32%
    03:00 +26°C° 0 mm 7 m/S 720 mmHg 32%
    04:00 +23°C° 0 mm 8 m/S 720 mmHg 33%
    05:00 +22°C° 0 mm 8 m/S 721 mmHg 34%
    06:00 +22°C° 0 mm 8 m/S 721 mmHg 36%
    07:00 +23°C° 0 mm 8 m/S 722 mmHg 37%
    08:00 +23°C° 0 mm 8 m/S 722 mmHg 39%
    09:00 +26°C° 0 mm 9 m/S 722 mmHg 33%
    10:00 +28°C° 0 mm 9 m/S 721 mmHg 27%
    11:00 +31°C° 0 mm 9 m/S 721 mmHg 21%
    12:00 +32°C° 0 mm 10 m/S 721 mmHg 20%
    13:00 +33°C° 0 mm 10 m/S 720 mmHg 19%
    14:00 +34°C° 0 mm 11 m/S 719 mmHg 19%
    15:00 +33°C° 0 mm 11 m/S 719 mmHg 20%
    16:00 +32°C° 0 mm 12 m/S 720 mmHg 21%
    17:00 +31°C° 0 mm 12 m/S 720 mmHg 22%
    18:00 +27°C° 0 mm 12 m/S 720 mmHg 28%
    19:00 +23°C° 0 mm 12 m/S 721 mmHg 34%
    20:00 +18°C° 0 mm 12 m/S 722 mmHg 41%
    21:00 +17°C° 0 mm 11 m/S 722 mmHg 41%
    22:00 +17°C° 0 mm 10 m/S 722 mmHg 41%
    23:00 +16°C° 0 mm 10 m/S 722 mmHg 41%

    18 Dezember, Montag

    Zeit Temperatur Niederschläge Wind Luftdruck Luftfeuchtigkeit
    00:00 +15°C° 0 mm 9 m/S 722 mmHg 42%
    01:00 +13°C° 0 mm 9 m/S 722 mmHg 43%
    02:00 +13°C° 0 mm 9 m/S 722 mmHg 45%
    03:00 +12°C° 0 mm 9 m/S 722 mmHg 47%
    04:00 +12°C° 0 mm 10 m/S 722 mmHg 50%
    05:00 +12°C° 0 mm 10 m/S 722 mmHg 52%
    06:00 +13°C° 0 mm 11 m/S 722 mmHg 49%
    07:00 +15°C° 0 mm 12 m/S 722 mmHg 46%
    08:00 +17°C° 0 mm 13 m/S 722 mmHg 42%
    09:00 +19°C° 0 mm 14 m/S 722 mmHg 39%
    10:00 +20°C° 0 mm 14 m/S 722 mmHg 36%
    11:00 +22°C° 0 mm 15 m/S 722 mmHg 33%
    12:00 +23°C° 0 mm 15 m/S 722 mmHg 32%
    13:00 +24°C° 0 mm 15 m/S 722 mmHg 32%
    14:00 +24°C° 0 mm 15 m/S 722 mmHg 32%
    15:00 +24°C° 0 mm 14 m/S 722 mmHg 31%
    16:00 +24°C° 0 mm 13 m/S 722 mmHg 31%
    17:00 +24°C° 0 mm 12 m/S 722 mmHg 31%
    18:00 +23°C° 0 mm 11 m/S 723 mmHg 34%
    19:00 +22°C° 0 mm 10 m/S 723 mmHg 37%
    20:00 +19°C° 0 mm 9 m/S 724 mmHg 40%
    21:00 +18°C° 0 mm 9 m/S 724 mmHg 43%
    22:00 +17°C° 0 mm 9 m/S 725 mmHg 47%
    23:00 +17°C° 0 mm 8 m/S 725 mmHg 50%
    Mehr zeigen